Jogging de Polleur
Jogging de Polleur 05/06/2015 - 9,8 km
Mise à jour le : 05/06/2015 à 21:19
Classement définitif, aucune correction possible
Place Nom Prénom Dossard Temps Vitesse Allure Place. Cat. Catégorie
1 DEVEL PHILIPPE 932 36:40 16,03 3:44 1 Vétérans 1
2 HERZET FREDERICK 4 37:36 15,64 3:50 1 Séniors
3 DARIMONT CHRISTOPHER 196 38:24 15,31 3:55 2 Séniors
4 BRONLET BENOIT 119 38:32 15,25 3:56 2 Vétérans 1
5 WALRAFF WALLY 678 38:57 15,09 3:58 3 Vétérans 1
6 HEINS FREDERIC 1016 39:09 15,02 3:59 3 Séniors
7 BARTHOLÉMY THIERRY 1054 39:29 14,89 4:01 4 Séniors
8 COLLART YOANN 926 39:47 14,77 4:03 1 Espoirs Garçons
9 DUBOIS SAMUEL 246 39:58 14,71 4:04 5 Séniors
10 KAILS REMY 505 40:00 14,70 4:04 6 Séniors
11 MANFROID GERARD 954 40:07 14,66 4:05 7 Séniors
12 FOGUENNE TIZIANO 290 40:14 14,61 4:06 2 Espoirs Garçons
13 MUYLKENS THIBAUT 949 40:30 14,52 4:07 8 Séniors
14 DE LA CERDA THEO 829 40:44 14,43 4:09 3 Espoirs Garçons
15 HENDRICK MARTIN 851 40:49 14,40 4:09 9 Séniors
16 LACROIX FRANCOIS 1037 40:53 14,38 4:10 10 Séniors
17 VROMEN PIERRE-YVES 675 40:57 14,35 4:10 11 Séniors
18 CHOUIBA MOHAMED 153 41:01 14,33 4:11 4 Vétérans 1
19 VANHULST BENOIT 662 41:05 14,31 4:11 12 Séniors
20 TOUSSAINT PIERRE 1008 41:09 14,28 4:12 13 Séniors
21 BOURS PHILIPPE 857 41:26 14,19 4:13 14 Séniors
22 CABAY ROMAIN 918 41:29 14,17 4:14 15 Séniors
23 HENRARD CEDRIC 348 41:35 14,14 4:14 16 Séniors
24 HAZARD GAETAN 344 41:43 14,09 4:15 17 Séniors
25 HAFIANE ELIAS 891 41:55 14,03 4:16 4 Espoirs Garçons
26 PEUTAT SEBASTIEN 681 42:05 13,97 4:17 18 Séniors
27 LEJEUNE PHILIPPE 966 42:07 13,96 4:17 5 Vétérans 1
28 SCHOONBROODT FRANCK 899 42:11 13,94 4:18 5 Espoirs Garçons
29 DELREZ AMAURY 864 42:25 13,86 4:19 19 Séniors
30 MOREAU BERNARD 860 42:36 13,80 4:20 6 Vétérans 1
31 LECLERCQ JEAN-PHILIPPE 428 42:38 13,79 4:21 20 Séniors
32 DOYEN LUDOVIC 1035 42:39 13,78 4:21 6 Espoirs Garçons
33 JOSKIN DAMIEN 390 42:41 13,77 4:21 21 Séniors
34 BUCHE JEAN-PASCAL 855 42:43 13,76 4:21 7 Vétérans 1
35 DEMIRKAZAN MIKAIL 900 42:59 13,68 4:23 22 Séniors
36 DELPORTE NICOLAS 903 43:02 13,66 4:23 23 Séniors
37 GHYSENS RENAUD 904 43:05 13,65 4:23 24 Séniors
38 FOGUENNE ALAIN 288 43:06 13,64 4:23 8 Vétérans 1
39 MIGNON PHILIPPE 628 43:15 13,59 4:24 9 Vétérans 1
40 DELREZ DIDIER 203 43:19 13,57 4:25 10 Vétérans 1
41 GODELAINE STEPHANE 323 43:24 13,54 4:25 25 Séniors
42 JASPAR JULIEN 382 43:26 13,54 4:25 26 Séniors
43 NAHON CHRISTIAN 994 43:40 13,46 4:27 11 Vétérans 1
44 DELVAUX GARY 208 43:49 13,42 4:28 27 Séniors
45 ALBERT STEVE 36 44:01 13,36 4:29 28 Séniors
46 LODOMEZ OLIVIER 454 44:04 13,34 4:29 29 Séniors
47 PIRLET SIMON 990 44:07 13,33 4:30 30 Séniors
48 BUSCH TIMOTHY 129 44:18 13,27 4:31 7 Espoirs Garçons
49 WEICKMANS DAVID 684 44:21 13,26 4:31 31 Séniors
50 PIRENNE DAVID 539 44:27 13,23 4:32 12 Vétérans 1
51 DELANDHEERE LIONEL 938 44:36 13,18 4:33 32 Séniors
52 SIEBENBOUR MICHEL 876 44:38 13,17 4:33 13 Vétérans 1
53 COLIN JEROME 974 44:39 13,17 4:33 33 Séniors
54 BODESON AUGUSTIN 810 44:42 13,15 4:33 34 Séniors
55 LEJACQUES THIBAUT 548 44:51 13,11 4:34 35 Séniors
56 PAULY DIDIER 828 44:57 13,08 4:35 14 Vétérans 1
57 DEFOSSA ARNOULD 1004 44:58 13,07 4:35 36 Séniors
58 PONCELET NICOLAS 703 44:59 13,07 4:35 37 Séniors
59 VAESEN PHILIPPE 645 45:00 13,06 4:35 38 Séniors
60 AJA VALDES MANU 43 45:02 13,06 4:35 15 Vétérans 1
61 ANDRE RENE 47 45:06 13,03 4:36 1 Vétérans 2
62 JASPAR CHRISTIAN 383 45:09 13,02 4:36 1 Vétérans 3
63 FINK JO 856 45:12 13,00 4:36 16 Vétérans 1
64 DELCOUR PHILIPPE 190 45:18 12,98 4:37 17 Vétérans 1
65 PIRLET MARTIN 540 45:22 12,96 4:37 39 Séniors
66 RUZZICONI ELLIOT 929 45:24 12,95 4:38 8 Espoirs Garçons
67 MALMENDIER YVES 997 45:28 12,93 4:38 2 Vétérans 2
68 DELOYER THOMAS 202 45:29 12,92 4:38 9 Espoirs Garçons
69 DESMECHT JAMES 224 45:34 12,90 4:39 18 Vétérans 1
70 BROUWIER PIERRE 121 45:37 12,89 4:39 2 Vétérans 3
71 FASSIN KEVIN 1033 45:40 12,87 4:39 40 Séniors
72 CANALES ALBERTO 130 45:51 12,82 4:40 3 Vétérans 3
73 EL BALDI SAID 258 45:52 12,82 4:40 19 Vétérans 1
74 VAN TOMME YVES 819 45:59 12,78 4:41 3 Vétérans 2
75 LEMAIRE CEDRIC 440 46:00 12,78 4:41 41 Séniors
76 BERTRAND CYRIL 1061 46:02 12,77 4:41 42 Séniors
77 SONTAG THIERRY 615 46:05 12,76 4:42 43 Séniors
78 VANDEPUTTE PASCAL 1144 46:08 12,74 4:42 20 Vétérans 1
79 NOIRHOMME PIERRE 667 46:17 12,70 4:43 44 Séniors
80 LEMARCOTTE JOHNNY 443 46:24 12,67 4:44 21 Vétérans 1
81 DEGUELDRE VINCENT 186 46:28 12,65 4:44 45 Séniors
82 GOMZE MICHEL 272 46:29 12,65 4:44 22 Vétérans 1
83 DEPRESSEUX NICOLAS 894 46:32 12,64 4:44 46 Séniors
84 SKUPIEWSKI GREGORY 1063 46:36 12,62 4:45 47 Séniors
85 HIGNY BERTRAND 850 46:40 12,60 4:45 48 Séniors
86 DEKEMPENER THIBAUD 188 46:42 12,59 4:45 49 Séniors
87 CASTELA MONROY THOMAS 934 46:45 12,57 4:46 50 Séniors
88 FASSIN JEAN-FRANCOIS 277 46:49 12,56 4:46 51 Séniors
89 CHARLIER ALEXANDRE 137 46:50 12,55 4:46 52 Séniors
90 MATHIEU THIERRY 793 46:53 12,54 4:47 23 Vétérans 1
91 VITELLO CHRISTOPHE 993 46:59 12,51 4:47 53 Séniors
92 GUILLAUME DAMIEN 6 47:01 12,50 4:47 54 Séniors
93 BORN ADRIEN 985 47:05 12,49 4:48 10 Espoirs Garçons
94 BOURMAH ACHMED 946 47:06 12,48 4:48 55 Séniors
95 KEIL YVES 509 47:14 12,45 4:49 24 Vétérans 1
96 LUX RALPH 963 47:23 12,41 4:50 4 Vétérans 2
97 HEUSCH VINCENT 357 47:26 12,40 4:50 25 Vétérans 1
98 DUPUIS MICHEL 1011 47:33 12,37 4:51 4 Vétérans 3
99 BRAGARD ALEXANDRE 108 47:37 12,35 4:51 56 Séniors
100 HALLEUX JEAN MARIE 337 47:39 12,34 4:51 26 Vétérans 1
101 FRANSOLET JONATHAN 881 47:40 12,33 4:51 57 Séniors
102 FRANSOLET YVES 941 47:41 12,33 4:51 5 Vétérans 2
103 DELOYER LAURENT 201 47:42 12,33 4:52 58 Séniors
104 DEKROCK PHILIPPE 952 47:43 12,32 4:52 59 Séniors
105 JACQUE OLIVIER 374 47:44 12,32 4:52 60 Séniors
106 THONNARD MARC 922 47:48 12,30 4:52 6 Vétérans 2
107 GEIEBENNE OLIVIER 955 47:58 12,26 4:53 61 Séniors
108 SCHYNS FRANCOIS 1041 48:05 12,23 4:54 62 Séniors
109 PETRUZZELLI PIERRE 931 48:10 12,21 4:54 63 Séniors
110 TROUDI KAMEL 643 48:17 12,18 4:55 7 Vétérans 2
111 CRICKBOOM MAXIME 970 48:18 12,17 4:55 11 Espoirs Garçons
112 NAWYN BENJAMIN 5 48:19 12,17 4:55 27 Vétérans 1
113 NYSSEN PIERRE 723 48:27 12,14 4:56 28 Vétérans 1
114 BAGUETTE DENIS 55 48:32 12,11 4:57 64 Séniors
115 GENICOT ROMAIN 979 48:33 12,11 4:57 65 Séniors
116 MOGHOGHI YASSINE 1049 48:35 12,10 4:57 66 Séniors
117 FONTAINE SERGE 291 48:37 12,09 4:57 29 Vétérans 1
118 FROIDMONT DANIELLE 992 48:38 12,09 4:57 1 Ainées 2
119 CIOMEK FREDERIC 991 48:39 12,09 4:57 30 Vétérans 1
120 NEUPREZ GERALD 866 48:43 12,07 4:58 67 Séniors
121 EVRARD CYRIL 1059 48:44 12,06 4:58 12 Espoirs Garçons
122 LECLERCQ JORDAN 429 48:48 12,05 4:58 68 Séniors
123 HAUGLUSTAINE JEROME 986 48:54 12,02 4:59 69 Séniors
124 DIVITA ANTONIO 995 48:55 12,02 4:59 8 Vétérans 2
125 HICK STEFAN 885 48:56 12,01 4:59 70 Séniors
126 BODESON GREGOIRE 811 48:57 12,01 4:59 71 Séniors
127 THIELEN ALAIN 630 48:59 12,00 4:59 31 Vétérans 1
128 VAN HAUTEN KEVIN 650 49:01 11,99 5:00 72 Séniors
129 PALM GUILLAUME 1039 49:04 11,98 5:00 73 Séniors
130 COMPERE MICHEL 973 49:05 11,98 5:00 74 Séniors
131 DEFRAITEUR NICOLAS 1022 49:07 11,97 5:00 13 Espoirs Garçons
132 DEVILLE MICHEL 234 49:08 11,96 5:00 9 Vétérans 2
133 FOCKEDEY ANNE 350 49:09 11,96 5:01 1 Ainées 1
134 JASPAR STEVE 815 49:11 11,95 5:01 75 Séniors
135 DE MOOR MAXIME 812 49:16 11,93 5:01 76 Séniors
136 HENDRICK JULIEN 347 49:17 11,93 5:01 77 Séniors
137 ERNOTTE AUBRY 826 49:20 11,91 5:02 78 Séniors
138 FAUTRE JEAN-CLAUDE 927 49:23 11,91 5:02 10 Vétérans 2
139 LEMAIRE GUILLAUME 441 49:26 11,89 5:02 79 Séniors
140 LORQUET SYLVIE 741 49:28 11,88 5:02 2 Ainées 2
141 LORQUET JEAN - MARC 10 49:30 11,88 5:03 11 Vétérans 2
142 HEROUFOSSE DAVID 1021 49:31 11,87 5:03 80 Séniors
143 BERTRAND FLORIAN 1060 49:33 11,87 5:03 14 Espoirs Garçons
144 MESTREZ ERIC 7 49:34 11,86 5:03 32 Vétérans 1
145 DEFECHE BAPTISTE 827 49:37 11,85 5:03 81 Séniors
146 LEGRAS FRANCOIS 1027 49:41 11,83 5:04 82 Séniors
147 HURLET LUCIEN 724 49:43 11,83 5:04 12 Vétérans 2
148 BRASSEUR FREDERIC 884 49:44 11,82 5:04 33 Vétérans 1
149 GILBERT QUENTIN 841 49:45 11,82 5:04 83 Séniors
150 THONNARD JEAN-YVES 633 49:46 11,81 5:04 13 Vétérans 2
151 VOSS JEAN-LOUIS 673 49:47 11,81 5:04 5 Vétérans 3
152 DOYEN SEBASTIEN 1036 49:49 11,80 5:05 15 Espoirs Garçons
153 LEFEBVRE LUDWIG 543 49:50 11,80 5:05 84 Séniors
154 JUNGBLUTH RAYMOND 396 49:51 11,79 5:05 6 Vétérans 3
155 HASARD BENJAMIN 863 49:53 11,78 5:05 16 Espoirs Garçons
156 EL BALDI DRISS 259 49:55 11,78 5:05 17 Espoirs Garçons
157 ELOYE JONATHAN 261 49:56 11,77 5:05 85 Séniors
158 MALMENDIER MATHIEU 923 50:01 11,75 5:06 86 Séniors
159 BONFOND DAVID 99 50:06 11,74 5:06 34 Vétérans 1
160 KYNDT STEPHEN 887 50:07 11,73 5:06 87 Séniors
161 WATAR FRANCIS 776 50:08 11,73 5:06 35 Vétérans 1
162 BORN ALAIN 984 50:12 11,71 5:07 14 Vétérans 2
163 LAMBERT MICHAEL 914 50:28 11,65 5:08 88 Séniors
164 ANGENOT JACQUES 1031 50:29 11,65 5:09 15 Vétérans 2
165 NONDONFAZ XHAVIER 905 50:30 11,64 5:09 36 Vétérans 1
166 SCHNAKERS ARNAUD 595 50:36 11,62 5:09 89 Séniors
167 LAURENT SEBASTIEN 1084 50:53 11,55 5:11 0 H Sans Cat
168 DERECOGNE JULIEN 1012 50:58 11,54 5:12 90 Séniors
169 SEPTON PHILIPPE 874 51:00 11,53 5:12 37 Vétérans 1
170 MOREAU HUGUES 861 51:04 11,51 5:12 18 Espoirs Garçons
171 DELACERDA PABLO 818 51:06 11,50 5:12 19 Espoirs Garçons
172 JOURDAN GUY 503 51:15 11,47 5:13 91 Séniors
173 LEMOINE MICHEL 445 51:16 11,47 5:13 38 Vétérans 1
174 DONNEAU PIERRE 315 51:18 11,46 5:14 92 Séniors
175 RANDAXHE ARNAUD 707 51:23 11,44 5:14 20 Espoirs Garçons
176 DEVILLERS ALAIN 282 51:25 11,43 5:14 16 Vétérans 2
177 DONNEAU BENOIT 311 51:27 11,43 5:15 93 Séniors
178 JOWA PIERRE 392 51:30 11,42 5:15 17 Vétérans 2
179 STAINIER ERIC 1067 51:31 11,41 5:15 18 Vétérans 2
180 CALOZET PRY 943 51:33 11,40 5:15 94 Séniors
181 JULEMONT JEAN MICHEL 833 51:45 11,36 5:16 39 Vétérans 1
182 BEAUVE MARC 953 51:49 11,35 5:17 40 Vétérans 1
183 AUBIER PHILIPPE 940 51:52 11,33 5:17 41 Vétérans 1
184 COUNET CHRISTELLE 1001 51:54 11,33 5:17 1 Dames
185 MOMMER PIERRE 831 51:56 11,32 5:18 95 Séniors
186 RENSON JEAN LUC 880 52:01 11,30 5:18 42 Vétérans 1
187 DROUGUET PHILIPPE 1000 52:05 11,29 5:18 43 Vétérans 1
188 BADENBERG BERNARD 53 52:09 11,27 5:19 44 Vétérans 1
189 HALLET PHILIPPE 1080 52:14 11,26 5:19 45 Vétérans 1
190 MENNICKEN ROGER 494 52:15 11,25 5:19 19 Vétérans 2
191 BLOEMEN DAVID 933 52:16 11,25 5:20 96 Séniors
192 BERTRAND DOMINIQUE 517 52:18 11,24 5:20 20 Vétérans 2
193 HENDRICKS JENNIFER 1032 52:19 11,24 5:20 2 Dames
194 MASSIN JEAN-PHILIPPE 484 52:20 11,23 5:20 97 Séniors
195 BASTIN PIERRE-YVES 869 52:22 11,23 5:20 46 Vétérans 1
196 LERHO XAVIER 1028 52:27 11,21 5:21 98 Séniors
197 RADERMECKER JULIE 726 52:28 11,20 5:21 3 Dames
198 YILDIZ HASAN 849 52:30 11,20 5:21 99 Séniors
199 VIELLEVOYE ZOE 902 52:35 11,18 5:21 1 Espoirs Filles
200 VIELLEVOYE DIDIER 901 52:36 11,18 5:22 47 Vétérans 1
201 WEBER MICHAEL 907 52:38 11,17 5:22 100 Séniors
202 MAGNETTE YVES 470 52:40 11,16 5:22 21 Vétérans 2
203 ROUFOSSE BASILE 878 52:41 11,16 5:22 21 Espoirs Garçons
204 MAWET FRANCOIS 1024 52:42 11,15 5:22 101 Séniors
205 LECLERCQ FABIEN 975 52:46 11,14 5:23 102 Séniors
206 WISLEZ FREDDY 694 52:53 11,12 5:23 7 Vétérans 3
207 BRASSEUR JULES 883 52:55 11,11 5:23 22 Espoirs Garçons
208 MATHIEU DYLAN 977 53:01 11,09 5:24 103 Séniors
209 DUBOIS PASCAL 332 53:03 11,08 5:24 104 Séniors
210 FOGUENNE MICHELINE 289 53:04 11,08 5:24 2 Ainées 1
211 THONON FREDERIC 858 53:09 11,06 5:25 105 Séniors
212 COLLIN STEFAN 1040 53:11 11,05 5:25 22 Vétérans 2
213 MALMENDIER NICOLAS 1020 53:19 11,03 5:26 106 Séniors
214 VINDEVOGEL TILL 846 53:20 11,02 5:26 23 Espoirs Garçons
215 BRICTEUX MARIUS 1078 53:21 11,02 5:26 24 Espoirs Garçons
216 MULLER JOAO PAULO 960 53:34 10,98 5:27 107 Séniors
217 BARTELET JOEL 972 53:35 10,97 5:28 8 Vétérans 3
218 NANIOT PATRICK 910 53:39 10,96 5:28 108 Séniors
219 SCHNEIDER PHILIPPE 892 53:41 10,95 5:28 48 Vétérans 1
220 HANSROUL MICHAEL 340 53:42 10,95 5:28 109 Séniors
221 COLS LOUIS 1014 53:43 10,94 5:28 25 Espoirs Garçons
222 LANGHOR BENJAMIN 1083 53:48 10,93 5:29 49 Vétérans 1
223 THISSEN FREDERICK 632 53:50 10,92 5:29 50 Vétérans 1
224 POLIS LUCIENNE 947 53:52 10,92 5:29 3 Ainées 2
225 HERNANDEZ RODRIGUEZ MANUEL 354 53:53 10,91 5:29 51 Vétérans 1
226 FREYMANN NICOLAS 998 53:54 10,91 5:30 110 Séniors
227 CAPIER JEAN-MARIE 197 53:57 10,90 5:30 9 Vétérans 3
228 LABEYE PIERRE 1026 53:58 10,89 5:30 111 Séniors
229 OLIVIER SIMON 1034 54:00 10,89 5:30 112 Séniors
230 LIEGEOIS JEAN 450 54:07 10,86 5:31 23 Vétérans 2
231 BOHN CHRISTOPHE 877 54:10 10,85 5:31 113 Séniors
232 CHRISTIAEN FRANCOIS 156 54:12 10,85 5:31 114 Séniors
233 VAESSEN SOPHIE 762 54:15 10,84 5:32 4 Dames
234 ISERENTANT CARINE 483 54:17 10,83 5:32 4 Ainées 2
235 KONINGS NATHALIE 526 54:18 10,83 5:32 5 Ainées 2
236 BOULANGER EMMANUEL 105 54:20 10,82 5:32 52 Vétérans 1
237 WINTGENS STEVE 823 54:22 10,81 5:32 26 Espoirs Garçons
238 BOULANGER NATHALIE 98 54:25 10,80 5:33 6 Ainées 2
239 RAWAY CINDY 801 54:26 10,80 5:33 3 Ainées 1
240 SCHLECK CHRISTOPHE 1065 54:27 10,80 5:33 115 Séniors
241 LEJEUNE BENEDICTE 1002 54:29 10,79 5:33 5 Dames
242 BRAGARD GREGORY 924 54:30 10,79 5:33 116 Séniors
243 CLERFAYS HUBERT 142 54:31 10,78 5:33 10 Vétérans 3
244 PIRENNE REMY 1009 54:35 10,77 5:34 117 Séniors
245 HENDRICKS VIRGINIE 1052 54:38 10,76 5:34 4 Ainées 1
246 GUENFOUDI AICHA 330 54:40 10,75 5:34 5 Ainées 1
247 BOUTET CEDRIC 967 54:42 10,75 5:34 118 Séniors
248 SOVMANDJAN ANTOINE 820 54:44 10,74 5:35 119 Séniors
249 HERZET MIREILLE 457 54:59 10,69 5:36 7 Ainées 2
250 EVRARD JOHAN 270 55:06 10,67 5:37 120 Séniors
251 SCHYNS ROMAIN 1013 55:07 10,67 5:37 121 Séniors
252 RITROVATO SYLVAIN 575 55:09 10,66 5:37 53 Vétérans 1
253 LABILLE LAURENT 1057 55:13 10,65 5:38 54 Vétérans 1
254 STASSEN BENJAMIN 890 55:26 10,61 5:39 122 Séniors
255 SCHYNS ANDRÉ 1017 55:28 10,60 5:39 24 Vétérans 2
256 DELOYER JEAN-PAUL 237 55:30 10,59 5:39 55 Vétérans 1
257 MOREAU PATRICE 959 55:31 10,59 5:39 123 Séniors
258 DA VIA FRANCOIS XAVIER 980 55:33 10,58 5:40 124 Séniors
259 BERTRANG JULIEN 79 55:34 10,58 5:40 11 Vétérans 3
260 PAULUS CAMILLE 813 55:36 10,58 5:40 6 Dames
261 MULLER CHRISTOPHE 957 55:40 10,56 5:40 125 Séniors
262 KHAMMAVONG SOM 1053 55:42 10,55 5:41 126 Séniors
263 LANSMANS VICTOR 862 55:55 10,52 5:42 27 Espoirs Garçons
264 LECLERE LOIC 1139 55:56 10,51 5:42 127 Séniors
265 EVRARD JEROME 1140 55:57 10,51 5:42 128 Séniors
266 MORIANI IZABELLE 906 55:59 10,50 5:42 6 Ainées 1
267 SCWEYEN ROBIN 948 56:00 10,50 5:42 129 Séniors
268 VOISIN HELENE 671 56:01 10,49 5:43 8 Ainées 2
269 RENOTTE CHRISTIAN 1058 56:03 10,49 5:43 130 Séniors
270 LEROY REGIS 917 56:03 10,49 5:43 28 Espoirs Garçons
271 HOMBURG GEOFFREY 471 56:04 10,48 5:43 131 Séniors
272 FAES NATHAN 944 56:06 10,48 5:43 132 Séniors
273 LOFFET ANDRE 822 56:08 10,47 5:43 56 Vétérans 1
274 BECKS CHRISTOPHE 913 56:10 10,47 5:43 133 Séniors
275 DEWIL JEAN 882 56:18 10,44 5:44 25 Vétérans 2
276 VAN HEUSDEN GEOFFREY 790 56:20 10,43 5:44 134 Séniors
277 BODESON ALBERT 824 56:27 10,41 5:45 57 Vétérans 1
278 GILBERT PHILIPPE 842 56:27 10,41 5:45 58 Vétérans 1
279 ONNAU SERGE 925 56:34 10,39 5:46 59 Vétérans 1
280 RENIER PHILIPPE 566 56:34 10,39 5:46 60 Vétérans 1
281 LEJEUNE CEDRIC 1005 56:49 10,35 5:47 135 Séniors
282 SIMONIS NADIA 930 56:52 10,34 5:48 7 Dames
283 BONFOND PATRICK 97 56:53 10,33 5:48 61 Vétérans 1
284 HENET JULIE 830 56:55 10,33 5:48 7 Ainées 1
285 PINCKAERS SYLVIE 1023 57:00 10,32 5:48 8 Dames
286 VIOLLE BENJAMIN 772 57:01 10,31 5:49 136 Séniors
287 BRIKA ARNAUD 916 57:03 10,31 5:49 137 Séniors
288 DELGES WALTER 236 57:06 10,30 5:49 26 Vétérans 2
289 DUBRU DOMINIQUE 247 57:08 10,29 5:49 9 Ainées 2
290 KYNDT STEPHEN 968 57:10 10,29 5:50 138 Séniors
291 JASPARD THOMAS 840 57:11 10,28 5:50 139 Séniors
292 COLIN JEAN-LOUIS 144 57:12 10,28 5:50 12 Vétérans 3
293 REPPEN NICOLAS 570 57:14 10,27 5:50 27 Vétérans 2
294 MOXHET NICOLAS 510 57:16 10,27 5:50 13 Vétérans 3
295 MARECHAL JEROME 939 57:21 10,25 5:51 140 Séniors
296 DELHEZ FREDERIC 195 57:22 10,25 5:51 141 Séniors
297 MARECHAL DAVID 479 57:23 10,24 5:51 142 Séniors
298 TERWAGNE PIERRE 756 57:28 10,23 5:51 143 Séniors
299 ANGENOT DAMIEN 843 57:32 10,22 5:52 144 Séniors
300 MARCOTTE JEAN LUC 604 57:34 10,21 5:52 28 Vétérans 2
301 HAUSEUX CHRISTOPHE 945 57:35 10,21 5:52 29 Vétérans 2
302 MARAITE ERIC 921 57:37 10,20 5:52 62 Vétérans 1
303 DEGUELDRE OLIVIER 875 57:38 10,20 5:52 145 Séniors
304 GOFFIN MATHILDE 937 57:45 10,18 5:53 2 Espoirs Filles
305 CREMER CHRISTELLE 185 57:46 10,18 5:53 9 Dames
306 PESSER RENE 797 57:48 10,17 5:53 30 Vétérans 2
307 DEBROUX WALTER 936 57:50 10,17 5:54 29 Espoirs Garçons
308 LECLERCQ XAVIER 18 57:55 10,15 5:54 146 Séniors
309 COLLARD ARMAND 852 57:57 10,15 5:54 30 Espoirs Garçons
310 COLLARD SERGE 145 57:58 10,14 5:54 63 Vétérans 1
311 LEMOINE RENAUD 1051 58:08 10,11 5:55 64 Vétérans 1
312 RENARD JEREMY 806 58:10 10,11 5:56 147 Séniors
313 GILET MAURICE 845 58:12 10,10 5:56 14 Vétérans 3
314 HENROTTE MICHEL 1066 58:14 10,10 5:56 65 Vétérans 1
315 LEJEUNE JEROME 836 58:15 10,09 5:56 148 Séniors
316 LEJEUNE GEOFFRAY 837 58:17 10,09 5:56 149 Séniors
317 FETTWEIS THIERRY 281 58:17 10,09 5:56 31 Vétérans 2
318 DETRY PHILIPPE 232 58:18 10,09 5:56 32 Vétérans 2
319 LONNU ALAIN 956 58:21 10,08 5:57 150 Séniors
320 RONKART LEON 580 58:22 10,07 5:57 15 Vétérans 3
321 BRONFORT LAETITIA 817 58:25 10,06 5:57 10 Dames
322 CLAESSEN PASCAL 1010 58:26 10,06 5:57 151 Séniors
323 FOULON DANIEL 928 58:34 10,04 5:58 33 Vétérans 2
324 BRUTINEL MURIEL 867 58:36 10,03 5:58 11 Dames
325 EMONTS XAVIER 1055 58:44 10,01 5:59 152 Séniors
326 JENNES SANDRINE 718 58:47 10,00 5:59 8 Ainées 1
327 BRONFORT FREDERIC 816 58:49 10,00 6:00 153 Séniors
328 SCHREURS BERNARD 600 58:53 9,98 6:00 154 Séniors
329 TODE VINCENT 641 58:56 9,98 6:00 34 Vétérans 2
330 LAHAYE JEAN-YVES 1015 58:58 9,97 6:01 155 Séniors
331 LEPORCK MARGAUX 1019 59:00 9,97 6:01 12 Dames
332 RENNOTTE RAPHAEL 715 59:07 9,94 6:01 156 Séniors
333 MOSSOUX PHILIPPE 508 59:12 9,93 6:02 35 Vétérans 2
334 CHAVET THOMAS 983 59:14 9,93 6:02 31 Espoirs Garçons
335 DERU TOM 1048 59:18 9,91 6:03 32 Espoirs Garçons
336 NOIRFALISE CECILE 523 59:25 9,89 6:03 9 Ainées 1
337 ROUFOSSE PIERROT 879 59:36 9,87 6:04 33 Espoirs Garçons
338 THIEBAUT LOUIS 935 59:39 9,86 6:05 157 Séniors
339 MELERO MANUEL 911 59:40 9,85 6:05 66 Vétérans 1
340 LINCE FRANCOISE 586 59:42 9,85 6:05 10 Ainées 1
341 ROUFOSSE UGO 34 59:43 9,85 6:05 67 Vétérans 1
342 JANSON FRANCOIS 802 59:46 9,84 6:05 68 Vétérans 1
343 KARYDAS IOANNIS 859 59:50 9,83 6:06 158 Séniors
344 XHAFLAIRE GILLES 873 59:54 9,82 6:06 159 Séniors
345 GODDE CHRISTOPHE 962 59:57 9,81 6:07 160 Séniors
346 ISERENTANT GREGORY 1029 1:00:01 9,80 6:07 161 Séniors
347 DERU LENA 1045 1:00:02 9,79 6:07 3 Espoirs Filles
348 RIGO JEAN-FRANCOIS 722 1:00:16 9,76 6:08 69 Vétérans 1
349 BASTIN PAUL 61 1:00:33 9,71 6:10 16 Vétérans 3
350 WEBER GERTY 683 1:00:34 9,71 6:10 1 Ainées 3
351 LEJEUNE DAVID 553 1:00:41 9,69 6:11 70 Vétérans 1
352 PIELA RUDY 537 1:00:43 9,68 6:11 162 Séniors
353 BOULARD FANNY 920 1:00:45 9,68 6:11 13 Dames
354 ERNST ANDRE 265 1:00:48 9,67 6:12 36 Vétérans 2
355 DOUCET MICHAEL 942 1:00:50 9,66 6:12 163 Séniors
356 SORET XAVIER 989 1:00:53 9,66 6:12 164 Séniors
357 MASSANGE ELODIE 1069 1:00:56 9,65 6:13 14 Dames
358 DRIESKENS DAVID 1141 1:00:57 9,64 6:13 165 Séniors
359 FASSOTTE JORDY 1064 1:00:59 9,64 6:13 166 Séniors
360 SCHNAKERS OLIVIER 961 1:01:00 9,64 6:13 167 Séniors
361 LINCE AXELLE 1079 1:01:02 9,63 6:13 4 Espoirs Filles
362 VANAUBEL MARILYN 765 1:01:03 9,63 6:13 15 Dames
363 BALTUS JOSE 58 1:01:04 9,63 6:13 17 Vétérans 3
364 DRIESEN PASCAL 919 1:01:06 9,62 6:14 168 Séniors
365 DUVNYAK RACHEL 1007 1:01:26 9,57 6:16 11 Ainées 1
366 DE SPA CAROLINE 1030 1:01:26 9,57 6:16 10 Ainées 2
367 DOUBELS MYRIAM 326 1:01:46 9,52 6:18 11 Ainées 2
368 DELREZ SANDRA 238 1:01:47 9,51 6:18 12 Ainées 2
369 LOHAY FREDERIC 587 1:01:56 9,49 6:19 169 Séniors
370 WEBER GILBERTE 682 1:01:58 9,49 6:19 2 Ainées 3
371 ROUFOSSE BENOIT 21 1:02:01 9,48 6:19 37 Vétérans 2
372 SORET MARLENE 1042 1:02:05 9,47 6:20 16 Dames
373 DERU FLORE 1046 1:02:10 9,46 6:20 5 Espoirs Filles
374 FISCHER GAELLE 912 1:02:11 9,45 6:20 17 Dames
375 LAMBERT HENRI 533 1:02:12 9,45 6:20 71 Vétérans 1
376 DERU FABIAN 1047 1:02:13 9,45 6:21 72 Vétérans 1
377 BIANCA SEBASTIEN 73 1:02:14 9,45 6:21 170 Séniors
378 PAROTTE AURORE 809 1:02:17 9,44 6:21 18 Dames
379 DAHMEN VERONIQUE 803 1:02:19 9,43 6:21 12 Ainées 1
380 DE LEO PASCAL 30 1:02:20 9,43 6:21 18 Vétérans 3
381 SCHOONBROODT BENOIT 1077 1:02:24 9,42 6:22 171 Séniors
382 LOUVIAUX CINDY 464 1:02:40 9,38 6:23 13 Ainées 1
383 DEGOTTE GREGORY 872 1:02:42 9,38 6:23 172 Séniors
384 LOFFET CHRISTIAN 978 1:02:45 9,37 6:24 19 Vétérans 3
385 GUTKIN JUSTIN 871 1:02:48 9,36 6:24 34 Espoirs Garçons
386 DELWAIDE ANNE 209 1:02:50 9,36 6:24 13 Ainées 2
387 MERCH GEORGES 805 1:03:08 9,31 6:26 173 Séniors
388 MICHEL NADINE 951 1:03:15 9,30 6:27 14 Ainées 1
389 SIEMES JASON 1146 1:03:19 9,29 6:27 174 Séniors
390 CALMANT PHILIPPE 895 1:03:27 9,27 6:28 73 Vétérans 1
391 PIRSON ISABELLE 848 1:03:30 9,26 6:28 14 Ainées 2
392 THOME DAVID 838 1:03:32 9,25 6:29 175 Séniors
393 ORBAN SARAH 528 1:03:47 9,22 6:30 19 Dames
394 DARIMONT JOCELYNE 169 1:03:47 9,22 6:30 15 Ainées 2
395 BUSCH ISABELLE 127 1:03:55 9,20 6:31 15 Ainées 1
396 ROUSCHOP ANTOINE 835 1:03:57 9,19 6:31 20 Vétérans 3
397 BONVARLEZ RUDI 1056 1:03:59 9,19 6:31 38 Vétérans 2
398 COLLIGNON SABRINA 1068 1:04:10 9,16 6:32 20 Dames
399 VANVLASSELAER CECILE 839 1:04:11 9,16 6:33 16 Ainées 1
400 LABEDZ JONATHAN 988 1:04:16 9,15 6:33 176 Séniors
401 NAHON SYLVIE 516 1:04:21 9,14 6:34 16 Ainées 2
402 PROPS SYLVAIN 996 1:04:31 9,11 6:35 74 Vétérans 1
403 VERHOEVEN HEDWIGE 981 1:04:32 9,11 6:35 17 Ainées 1
404 VANNESSE PASCAL 847 1:04:34 9,11 6:35 75 Vétérans 1
405 ROSEN JULIEN 1018 1:04:41 9,09 6:36 35 Espoirs Garçons
406 PREUMONT MICHEL 555 1:04:43 9,08 6:36 21 Vétérans 3
407 VERVIER MANU 808 1:04:51 9,07 6:37 177 Séniors
408 LYNDT JOHANNE 950 1:04:52 9,06 6:37 21 Dames
409 CHARLIER GARY 821 1:04:53 9,06 6:37 178 Séniors
410 THILMANY CHRISTINE 844 1:04:56 9,06 6:37 22 Dames
411 REUCHAMPS REGINE 571 1:04:57 9,05 6:37 17 Ainées 2
412 SWARTENBROUCKX VINCENT 870 1:04:59 9,05 6:37 76 Vétérans 1
413 DE JONGHE JULIEN 1043 1:05:00 9,04 6:38 39 Vétérans 2
414 VILVORDER MELANIE 868 1:05:02 9,04 6:38 23 Dames
415 BRICTEUX JULIA 1081 1:05:06 9,03 6:38 6 Espoirs Filles
416 FAUTRE TIFFANY 893 1:05:12 9,02 6:39 24 Dames
417 HOUBEN TEDDY 853 1:05:18 9,00 6:39 179 Séniors
418 BARTELET DANIELLE 971 1:05:32 8,97 6:41 3 Ainées 3
419 VARVAECKE JORDAN 1025 1:05:33 8,97 6:41 180 Séniors
420 MARCHAL AMAURY 477 1:05:39 8,96 6:41 181 Séniors
421 BOES DOROTHEE 93 1:05:56 8,92 6:43 18 Ainées 2
422 RUBENS MICHAEL 1145 1:06:10 8,89 6:45 182 Séniors
423 DORMAL CATHERINE 320 1:06:19 8,87 6:46 18 Ainées 1
424 DETRY OLIVIER 233 1:06:25 8,85 6:46 77 Vétérans 1
425 DETRY ZOE 915 1:06:26 8,85 6:46 7 Espoirs Filles
426 MAQUINAY FELICIEN 475 1:06:28 8,85 6:46 40 Vétérans 2
427 SCHMITZ LIONEL 964 1:06:29 8,84 6:47 36 Espoirs Garçons
428 HENDRICK GREGORY 909 1:06:30 8,84 6:47 183 Séniors
429 DROUGUET MARIE 999 1:06:31 8,84 6:47 25 Dames
430 DENOZ BENJAMIN 220 1:06:40 8,82 6:48 184 Séniors
431 LELOUP JESSICA 908 1:06:43 8,81 6:48 26 Dames
432 LODEZ REMY ALEXANDRE 1062 1:06:58 8,78 6:50 0 H Sans Cat
433 SCHMITZ LYDIE 898 1:07:03 8,77 6:50 27 Dames
434 TILMANT RAPHAEL 760 1:07:09 8,76 6:51 78 Vétérans 1
435 WILKET MICHEL 781 1:07:10 8,75 6:51 79 Vétérans 1
436 LEMOINE ALINE 563 1:07:16 8,74 6:51 19 Ainées 1
437 WILKIN ANDRE 690 1:07:35 8,70 6:53 22 Vétérans 3
438 DURAND CATHERINE 807 1:07:51 8,67 6:55 28 Dames
439 LEONARD EMILIE 987 1:08:27 8,59 6:59 29 Dames
440 PIRLOT BERNARD 541 1:08:27 8,59 6:59 185 Séniors
441 KUMMELER STEPHANIE 527 1:08:59 8,52 7:02 20 Ainées 1
442 NICKELS DANIELLE 640 1:09:02 8,52 7:02 4 Ainées 3
443 LELOUP KEVIN 825 1:09:19 8,48 7:04 186 Séniors
444 RADERMECKER MARIE-ANNE 556 1:09:21 8,48 7:04 19 Ainées 2
445 ERNOULD MARIE 262 1:09:22 8,47 7:04 30 Dames
446 FRISSCHEN JACQUES 298 1:09:25 8,47 7:05 1 Vétérans 4
447 DELPORTE SAMUEL 804 1:09:57 8,40 7:08 37 Espoirs Garçons
448 FONTAINE ROBIN 888 1:10:01 8,40 7:08 38 Espoirs Garçons
449 SCHOONBROODT LAURENCE 1085 1:10:03 8,39 7:08 21 Ainées 1
450 INCONNU INCONNU 1086 1:10:04 8,39 0
451 DEJOND AXEL 832 1:10:05 8,39 7:09 187 Séniors
452 KOHL SANDRINE 958 1:10:09 8,38 7:09 31 Dames
453 JONLET LIONEL 13 1:10:09 8,38 7:09 188 Séniors
454 TEFNIN GUILLAUME 1038 1:10:20 8,36 7:10 189 Séniors
455 CHAVET ERIC 982 1:10:35 8,33 7:12 41 Vétérans 2
456 LARMINIER ANNE-MARIE 421 1:11:10 8,26 7:15 5 Ainées 3
457 LEMPEREUR PATRICE 446 1:12:12 8,14 7:22 23 Vétérans 3
458 JACQUE BENOIT 886 1:12:18 8,13 7:22 190 Séniors
459 LUCA DI PINASO LUCAS 976 1:13:20 8,02 7:28 42 Vétérans 2
460 CRUZ RUI 865 1:13:50 7,96 7:32 43 Vétérans 2
461 CALIFICE HUBERTE 128 1:14:00 7,95 7:33 6 Ainées 3
462 PAQUET EMELINE 1003 1:15:13 7,82 7:40 32 Dames
463 LAYOUNI SONIA 896 1:15:48 7,76 7:44 33 Dames
464 BRANDT ARLETTE 112 1:17:00 7,64 7:51 7 Ainées 3
465 DELHASSE REGINE 897 1:18:05 7,53 7:58 22 Ainées 1
466 LAHAYE MARIE 1044 1:18:48 7,46 8:02 34 Dames
467 LAHAYE YVAN 412 1:18:49 7,46 8:02 44 Vétérans 2
468 FOGUENNE MARIE-FRANCE 969 1:22:40 7,11 8:26 8 Espoirs Filles
469 MASSON LAURA 1142 1:24:36 6,95 8:38 9 Espoirs Filles
470 HUBIN JOHANNE 1143 1:24:37 6,95 8:38 35 Dames